Weather History for PAEG - April, 2013

Change the Weather History Date:

Wednesday, April 17, 2013

  Actual Average Record
Temperature  
Mean Temperature 14 °F -  
Max Temperature 27 °F - - ()
Min Temperature 1 °F - - ()
Degree Days  
Heating Degree Days 51    
Moisture  
Dew Point 0 °F    
Average Humidity 48    
Maximum Humidity 66    
Minimum Humidity 34    
Precipitation  
Precipitation 0.00 in - - ()
Sea Level Pressure  
Sea Level Pressure 30.28 in    
Wind  
Wind Speed 5 mph (North)    
Max Wind Speed 13 mph    
Max Gust Speed 22 mph    
Visibility 10 miles    
Events      
T = Trace of Precipitation, MM = Missing Value Source: NWS Daily Summary

Daily Weather History Graph

Daily Weather History Graph

Search for Another Location

Airport or City:

Trip Planner

Search our weather history database for the weather conditions in past years. The results will help you decide how hot, cold, wet, or windy it might be!

Date:

Astronomy

Apr. 17, 2013 Rise Set
Actual Time 5:41 AM AKDT 9:09 PM AKDT
Civil Twilight 4:42 AM AKDT 10:08 PM AKDT
Nautical Twilight 3:10 AM AKDT 11:44 PM AKDT
Astronomical Twilight Sun does not set Sun does not set
Moon 10:16 AM AKDT (4/17) 3:41 AM AKDT (4/17)
Length of Visible Light 17h 26m
Length of Day
15h 27m
Waxing Crescent, 44% of the Moon is Illuminated
Apr 17
Waxing Crescent
Apr 18
First Quarter
Apr 25
Full
May 2
Last Quarter
May 9
New

Hourly Weather History & Observations

Time (AKDT) Temp. Windchill Dew Point Humidity Pressure Visibility Wind Dir Wind Speed Gust Speed Precip Events Conditions
12:53 AM 1.9 °F - -7.1 °F 66% 30.32 in 10.0 mi Calm Calm - N/A   Clear
1:53 AM 3.9 °F -5.3 °F -6.0 °F 64% 30.30 in 10.0 mi WNW 4.6 mph - N/A   Mostly Cloudy
2:53 AM 3.0 °F - -6.0 °F 66% 30.30 in 10.0 mi Calm Calm - N/A   Partly Cloudy
3:53 AM 6.1 °F -0.9 °F -4.0 °F 63% 30.29 in 10.0 mi Variable 3.5 mph - N/A   Scattered Clouds
4:53 AM 3.9 °F -6.9 °F -5.1 °F 66% 30.27 in 10.0 mi West 5.8 mph - N/A   Clear
5:53 AM 10.9 °F 1.4 °F -2.0 °F 56% 30.27 in 10.0 mi WNW 5.8 mph - N/A   Clear
6:53 AM 10.9 °F 0.2 °F -2.0 °F 56% 30.26 in 10.0 mi WNW 6.9 mph - N/A   Clear
7:53 AM 12.9 °F - -0.9 °F 54% 30.26 in 10.0 mi Calm Calm - N/A   Mostly Cloudy
8:53 AM 16.0 °F - -0.0 °F 49% 30.25 in 10.0 mi Calm Calm - N/A   Partly Cloudy
9:53 AM 19.9 °F 8.6 °F 1.0 °F 44% 30.25 in 10.0 mi WNW 10.4 mph - N/A   Clear
10:53 AM 24.1 °F 13.7 °F 1.9 °F 38% 30.24 in 10.0 mi North 10.4 mph 17.3 mph N/A   Clear
11:53 AM 25.0 °F 15.5 °F 1.9 °F 37% 30.24 in 10.0 mi North 9.2 mph 18.4 mph N/A   Clear
12:53 PM 26.1 °F 15.0 °F 1.9 °F 35% 30.26 in 10.0 mi North 12.7 mph 21.9 mph N/A   Partly Cloudy
1:53 PM 25.0 °F 14.8 °F 1.0 °F 36% 30.27 in 10.0 mi NE 10.4 mph 20.7 mph N/A   Partly Cloudy
2:53 PM 26.1 °F 15.6 °F 1.9 °F 35% 30.27 in 10.0 mi NNE 11.5 mph 17.3 mph N/A   Clear
3:53 PM 27.0 °F 16.7 °F 1.9 °F 34% 30.27 in 10.0 mi NNE 11.5 mph 21.9 mph N/A   Scattered Clouds
4:53 PM 25.0 °F 13.6 °F 3.0 °F 39% 30.29 in 10.0 mi NNE 12.7 mph - N/A   Overcast
5:53 PM 25.0 °F 15.5 °F 3.0 °F 39% 30.29 in 10.0 mi NE 9.2 mph 17.3 mph N/A   Mostly Cloudy
6:53 PM 24.1 °F 15.2 °F 3.0 °F 40% 30.30 in 10.0 mi NNE 8.1 mph - N/A   Partly Cloudy
7:53 PM 23.0 °F 13.1 °F 3.9 °F 44% 30.30 in 10.0 mi NNE 9.2 mph 21.9 mph N/A   Partly Cloudy
8:53 PM 23.0 °F 11.7 °F 3.9 °F 44% 30.31 in 10.0 mi NNE 11.5 mph - N/A   Overcast
9:53 PM 21.0 °F 11.4 °F 3.9 °F 48% 30.31 in 10.0 mi North 8.1 mph - N/A   Partly Cloudy
10:53 PM 21.0 °F 9.9 °F 3.9 °F 48% 30.31 in 10.0 mi North 10.4 mph - N/A   Mostly Cloudy
11:53 PM 19.9 °F 10.1 °F 3.0 °F 48% 30.32 in 10.0 mi North 8.1 mph - N/A   Scattered Clouds